^^
Your Local Weather - Clay, NY Station Historical Data
Daily Summary for January 23, 2017 Units:  Metric    English   Both
« Previous Day
Next Day »
Daily Weekly Monthly Yearly Custom
  High: Low: Average:
Temperature: 4.8 °C -0.1 °C 2.6 °C
Dew Point: 2.7 °C -3.6 °C -0.9 °C
Humidity: 89% 68% 78%
Wind Speed: 14.5km/h 1.6km/h 7.9km/h
Wind Gust: 30.6km/h - -
Wind- - East
Pressure: 1010 hPa 1005.6 hPa -
Precipitation: 1.27 mm    
Historical Graphs
 
 
Tabular Data for January 23, 2017
Time Temperature Dew Point Pressure Wind Wind Speed Wind Gust Humidity Rainfall Rate (Hourly) solar
01:52 4.8 °C 2.7 °C 1008.4 hPa ENE 8 km/h 8 km/h 86% 0 mm 0 W/m2
01:58 4.8 °C 2.6 °C 1008.4 hPa NNE 8 km/h 9.7 km/h 86% 0 mm 0 W/m2
02:04 4.7 °C 2.5 °C 1008.4 hPa ESE 6.4 km/h 8 km/h 86% 0 mm 0 W/m2
02:10 4.6 °C 2.6 °C 1008.4 hPa ENE 8 km/h 12.9 km/h 87% 0 mm 0 W/m2
02:16 4.4 °C 2.4 °C 1008.4 hPa ENE 8 km/h 12.9 km/h 87% 0 mm 0 W/m2
02:22 4.4 °C 2.4 °C 1008.4 hPa East 8 km/h 11.3 km/h 87% 0 mm 0 W/m2
02:28 4.3 °C 2.4 °C 1008.4 hPa ENE 6.4 km/h 11.3 km/h 88% 0 mm 0 W/m2
02:34 4.2 °C 2.3 °C 1008.4 hPa SE 4.8 km/h 9.7 km/h 88% 0 mm 0 W/m2
02:40 4.1 °C 2.2 °C 1008.4 hPa NNE 6.4 km/h 6.4 km/h 88% 0 mm 0 W/m2
02:46 4 °C 2.2 °C 1008.4 hPa East 4.8 km/h 12.9 km/h 88% 0 mm 0 W/m2
02:52 3.9 °C 2.1 °C 1008.4 hPa East 6.4 km/h 6.4 km/h 88% 0 mm 0 W/m2
02:58 3.8 °C 2 °C 1008.4 hPa ENE 6.4 km/h 8 km/h 88% 0 mm 0 W/m2
03:04 3.8 °C 2 °C 1008.4 hPa East 6.4 km/h 6.4 km/h 88% 0 mm 0 W/m2
03:10 3.7 °C 1.9 °C 1008.4 hPa ESE 8 km/h 8 km/h 88% 0 mm 0 W/m2
03:16 3.7 °C 1.9 °C 1008.4 hPa East 9.7 km/h 14.5 km/h 88% 0 mm 0 W/m2
03:22 3.6 °C 1.7 °C 1008.4 hPa NNE 9.7 km/h 12.9 km/h 87% 0 mm 0 W/m2
03:28 3.6 °C 1.7 °C 1008.4 hPa East 8 km/h 12.9 km/h 87% 0 mm 0 W/m2
03:34 3.6 °C 1.7 °C 1008.4 hPa ENE 8 km/h 11.3 km/h 87% 0 mm 0 W/m2
03:40 3.6 °C 1.6 °C 1008.4 hPa ENE 8 km/h 11.3 km/h 87% 0 mm 0 W/m2
03:46 3.5 °C 1.6 °C 1008.4 hPa East 9.7 km/h 14.5 km/h 87% 0 mm 0 W/m2
03:52 3.5 °C 1.6 °C 1008.4 hPa ESE 9.7 km/h 12.9 km/h 87% 0 mm 0 W/m2
03:58 3.4 °C 1.5 °C 1008.4 hPa East 9.7 km/h 12.9 km/h 87% 0 mm 0 W/m2
04:04 3.4 °C 1.3 °C 1008.4 hPa East 8 km/h 11.3 km/h 86% 0 mm 0 W/m2
04:10 3.6 °C 1.4 °C 1008.4 hPa East 9.7 km/h 9.7 km/h 86% 0 mm 0 W/m2
04:16 3.6 °C 1.4 °C 1008.4 hPa NE 9.7 km/h 11.3 km/h 86% 0 mm 0 W/m2
04:22 3.6 °C 1.4 °C 1008.4 hPa East 8 km/h 12.9 km/h 86% 0 mm 0 W/m2
04:28 3.6 °C 1.3 °C 1008.4 hPa ESE 8 km/h 12.9 km/h 85% 0 mm 0 W/m2
04:34 3.6 °C 1.3 °C 1008.4 hPa NE 6.4 km/h 11.3 km/h 85% 0 mm 0 W/m2
04:40 3.7 °C 1.4 °C 1008.4 hPa SE 9.7 km/h 12.9 km/h 85% 0 mm 0 W/m2
04:46 3.7 °C 1.2 °C 1008.4 hPa SSE 9.7 km/h 12.9 km/h 84% 0 mm 0 W/m2
04:52 3.7 °C 1.4 °C 1008.4 hPa East 6.4 km/h 11.3 km/h 85% 0 mm 0 W/m2
04:58 3.7 °C 1.2 °C 1008.4 hPa East 6.4 km/h 11.3 km/h 84% 0 mm 0 W/m2
05:04 3.7 °C 1.3 °C 1008.4 hPa ESE 9.7 km/h 22.5 km/h 84% 0 mm 0 W/m2
05:10 3.7 °C 1.3 °C 1008.4 hPa East 8 km/h 17.7 km/h 84% 0 mm 0 W/m2
05:16 3.7 °C 1.3 °C 1008.4 hPa ENE 6.4 km/h 17.7 km/h 84% 0 mm 0 W/m2
05:22 3.7 °C 1.1 °C 1008.7 hPa East 8 km/h 8 km/h 83% 0 mm 0 W/m2
05:28 3.7 °C 1.3 °C 1008.7 hPa ENE 8 km/h 8 km/h 84% 0 mm 0 W/m2
05:34 3.7 °C 1.1 °C 1008.7 hPa NE 8 km/h 11.3 km/h 83% 0 mm 0 W/m2
05:40 3.7 °C 1.3 °C 1008.7 hPa East 8 km/h 8 km/h 84% 0 mm 0 W/m2
05:46 3.7 °C 1.1 °C 1008.7 hPa ENE 8 km/h 14.5 km/h 83% 0 mm 0 W/m2
05:52 3.7 °C 1.1 °C 1008.7 hPa East 8 km/h 8 km/h 83% 0 mm 0 W/m2
05:58 3.7 °C 1.1 °C 1008.7 hPa ENE 8 km/h 11.3 km/h 83% 0 mm 0 W/m2
06:04 3.7 °C 1.1 °C 1009 hPa ENE 8 km/h 9.7 km/h 83% 0 mm 0 W/m2
06:10 3.7 °C 1.1 °C 1009 hPa ESE 8 km/h 11.3 km/h 83% 0 mm 0 W/m2
06:16 3.7 °C 1.1 °C 1009 hPa NE 8 km/h 11.3 km/h 83% 0 mm 0 W/m2
06:22 3.7 °C 1.1 °C 1009 hPa East 9.7 km/h 9.7 km/h 83% 0 mm 0 W/m2
06:28 3.8 °C 1 °C 1009 hPa ENE 8 km/h 14.5 km/h 82% 0 mm 0 W/m2
06:34 3.8 °C 1 °C 1009.4 hPa SE 6.4 km/h 11.3 km/h 82% 0 mm 0 W/m2
06:40 3.9 °C 1.1 °C 1009.4 hPa East 8 km/h 12.9 km/h 82% 0 mm 0 W/m2
06:46 3.9 °C 1 °C 1009.4 hPa ENE 9.7 km/h 12.9 km/h 81% 0 mm 0 W/m2
06:52 3.9 °C 0.8 °C 1009.4 hPa ENE 8 km/h 8 km/h 80% 0 mm 0 W/m2
06:58 4 °C 0.8 °C 1009.4 hPa East 6.4 km/h 17.7 km/h 80% 0 mm 0 W/m2
07:04 4.1 °C 0.9 °C 1009.4 hPa ENE 8 km/h 12.9 km/h 80% 0 mm 0 W/m2
07:10 4.1 °C 0.9 °C 1009 hPa East 8 km/h 8 km/h 80% 0 mm 0 W/m2
07:16 4 °C 0.7 °C 1009 hPa NE 6.4 km/h 9.7 km/h 79% 0 mm 0 W/m2
07:22 3.9 °C 0.8 °C 1009 hPa NE 4.8 km/h 6.4 km/h 80% 0 mm 0 W/m2
07:28 3.7 °C 0.6 °C 1009.4 hPa East 4.8 km/h 11.3 km/h 80% 0 mm 0 W/m2
07:34 3.6 °C 0.3 °C 1009.4 hPa ENE 6.4 km/h 8 km/h 79% 0 mm 0 W/m2
07:40 3.5 °C 0.4 °C 1009.4 hPa ENE 6.4 km/h 12.9 km/h 80% 0 mm 0 W/m2
07:46 3.4 °C 0.3 °C 1009.4 hPa ESE 6.4 km/h 12.9 km/h 80% 0 mm 0 W/m2
07:52 3.3 °C 0.2 °C 1009.4 hPa East 4.8 km/h 11.3 km/h 80% 0 mm 5 W/m2
07:58 3.3 °C 0.2 °C 1009.4 hPa East 6.4 km/h 11.3 km/h 80% 0 mm 9 W/m2
08:04 3.3 °C 0.2 °C 1009.4 hPa East 4.8 km/h 8 km/h 80% 0 mm 12 W/m2
08:10 3.2 °C 0.3 °C 1009.4 hPa ENE 4.8 km/h 4.8 km/h 81% 0 mm 16 W/m2
08:16 3.2 °C 0.2 °C 1009.4 hPa East 6.4 km/h 8 km/h 81% 0 mm 18 W/m2
08:22 3.1 °C 0.2 °C 1009.4 hPa East 6.4 km/h 6.4 km/h 81% 0 mm 19 W/m2
08:28 3.1 °C 0.2 °C 1009.4 hPa ENE 4.8 km/h 8 km/h 81% 0 mm 19 W/m2
08:34 3.1 °C 0.2 °C 1009.4 hPa ENE 6.4 km/h 8 km/h 81% 0 mm 25 W/m2
08:40 3.2 °C 0.1 °C 1009.4 hPa East 6.4 km/h 6.4 km/h 80% 0 mm 28 W/m2
08:46 3.2 °C 0.1 °C 1009.4 hPa ESE 9.7 km/h 11.3 km/h 80% 0 mm 32 W/m2
08:52 3.3 °C 0 °C 1009.4 hPa ESE 8 km/h 9.7 km/h 79% 0 mm 33 W/m2
08:58 3.3 °C 0 °C 1009.4 hPa ENE 6.4 km/h 9.7 km/h 79% 0 mm 33 W/m2
09:04 3.2 °C -0.1 °C 1009.4 hPa ENE 8 km/h 9.7 km/h 79% 0 mm 39 W/m2
09:10 3.2 °C -0.1 °C 1009.4 hPa NE 6.4 km/h 6.4 km/h 79% 0 mm 40 W/m2
09:16 3.3 °C -0.2 °C 1009.4 hPa NE 8 km/h 8 km/h 78% 0 mm 46 W/m2
09:22 3.3 °C 0 °C 1009.4 hPa East 9.7 km/h 14.5 km/h 79% 0 mm 54 W/m2
09:28 3.2 °C -0.1 °C 1009.4 hPa ENE 8 km/h 14.5 km/h 79% 0 mm 60 W/m2
09:34 3.2 °C -0.3 °C 1009.4 hPa NNE 9.7 km/h 11.3 km/h 78% 0 mm 53 W/m2
09:40 3.2 °C -0.3 °C 1009.4 hPa ENE 9.7 km/h 16.1 km/h 78% 0 mm 60 W/m2
09:46 3.2 °C -0.3 °C 1009.7 hPa East 11.3 km/h 16.1 km/h 78% 0 mm 62 W/m2
09:52 3.2 °C -0.2 °C 1009.7 hPa ENE 6.4 km/h 11.3 km/h 78% 0 mm 54 W/m2
09:58 3.3 °C 0 °C 1009.7 hPa ENE 8 km/h 11.3 km/h 79% 0 mm 56 W/m2
10:06 3.3 °C -0.2 °C 1010 hPa ENE 6.4 km/h 11.3 km/h 78% 0 mm 58 W/m2
10:12 3.3 °C -0.2 °C 1010 hPa SE 6.4 km/h 8 km/h 78% 0 mm 49 W/m2
10:18 3.4 °C -0.3 °C 1010 hPa ENE 8 km/h 12.9 km/h 77% 0 mm 44 W/m2
10:26 3.4 °C -0.3 °C 1010 hPa NE 8 km/h 11.3 km/h 77% 0 mm 53 W/m2
10:32 3.4 °C -0.3 °C 1010 hPa East 8 km/h 8 km/h 77% 0 mm 58 W/m2
10:40 3.5 °C -0.2 °C 1010 hPa ENE 8 km/h 11.3 km/h 77% 0 mm 54 W/m2
10:46 3.5 °C -0.2 °C 1010 hPa ENE 8 km/h 12.9 km/h 77% 0 mm 51 W/m2
10:52 3.5 °C -0.2 °C 1010 hPa ENE 8 km/h 9.7 km/h 77% 0 mm 51 W/m2
10:58 3.5 °C -0.2 °C 1010 hPa NE 8 km/h 12.9 km/h 77% 0 mm 51 W/m2
11:04 3.4 °C -0.4 °C 1010 hPa East 9.7 km/h 14.5 km/h 76% 0 mm 58 W/m2
11:10 3.3 °C -0.3 °C 1010 hPa East 9.7 km/h 9.7 km/h 77% 0 mm 60 W/m2
11:16 3.2 °C -0.4 °C 1010 hPa NE 9.7 km/h 12.9 km/h 77% 0 mm 58 W/m2
11:22 3.1 °C -0.3 °C 1010 hPa ENE 8 km/h 8 km/h 78% 0 mm 56 W/m2
11:28 3.1 °C -0.3 °C 1009.7 hPa ENE 8 km/h 11.3 km/h 78% 0 mm 63 W/m2
11:34 3.1 °C -0.3 °C 1009.7 hPa ENE 6.4 km/h 9.7 km/h 78% 0 mm 72 W/m2
11:40 3.1 °C -0.3 °C 1009.4 hPa East 6.4 km/h 9.7 km/h 78% 0 mm 77 W/m2
11:46 3.2 °C -0.5 °C 1009.4 hPa NE 8 km/h 9.7 km/h 77% 0 mm 88 W/m2
11:52 3.2 °C -0.3 °C 1009 hPa NNE 9.7 km/h 17.7 km/h 78% 0 mm 111 W/m2
11:58 3.3 °C -0.4 °C 1009 hPa SE 8 km/h 17.7 km/h 77% 0 mm 121 W/m2
12:04 3.3 °C -0.4 °C 1009 hPa SE 9.7 km/h 12.9 km/h 77% 0 mm 114 W/m2
12:10 3.3 °C -0.4 °C 1009 hPa ESE 9.7 km/h 9.7 km/h 77% 0 mm 114 W/m2
12:16 3.3 °C -0.6 °C 1009 hPa East 9.7 km/h 14.5 km/h 76% 0 mm 132 W/m2
12:22 3.6 °C -0.3 °C 1009 hPa ESE 9.7 km/h 9.7 km/h 76% 0 mm 153 W/m2
12:28 3.7 °C -0.3 °C 1009 hPa ENE 9.7 km/h 14.5 km/h 75% 0 mm 139 W/m2
12:34 3.7 °C -0.6 °C 1009 hPa ENE 11.3 km/h 11.3 km/h 74% 0 mm 109 W/m2
12:40 3.6 °C -0.7 °C 1009 hPa ESE 11.3 km/h 12.9 km/h 74% 0 mm 102 W/m2
12:46 3.4 °C -0.8 °C 1009 hPa ENE 11.3 km/h 14.5 km/h 74% 0 mm 121 W/m2
12:52 3.4 °C -0.6 °C 1008.7 hPa East 9.7 km/h 11.3 km/h 75% 0 mm 97 W/m2
12:58 3.3 °C -0.9 °C 1008.7 hPa ENE 9.7 km/h 17.7 km/h 74% 0 mm 109 W/m2
13:06 3.3 °C -0.9 °C 1008.4 hPa ENE 9.7 km/h 9.7 km/h 74% 0 mm 113 W/m2
13:12 3.3 °C -1.1 °C 1008 hPa East 8 km/h 11.3 km/h 73% 0 mm 113 W/m2
13:18 3.2 °C -1.3 °C 1007.7 hPa East 9.7 km/h 12.9 km/h 72% 0 mm 113 W/m2
13:26 3.2 °C -1.4 °C 1008 hPa ENE 11.3 km/h 25.7 km/h 72% 0 mm 102 W/m2
13:32 3.1 °C -1.5 °C 1007.7 hPa SE 11.3 km/h 12.9 km/h 72% 0 mm 111 W/m2
13:38 3 °C -1.9 °C 1007.7 hPa ENE 9.7 km/h 14.5 km/h 70% 0 mm 97 W/m2
13:46 2.9 °C -1.8 °C 1007.7 hPa NE 12.9 km/h 17.7 km/h 71% 0 mm 100 W/m2
13:52 2.9 °C -1.8 °C 1007.7 hPa NE 11.3 km/h 22.5 km/h 71% 0 mm 116 W/m2
13:58 3 °C -1.7 °C 1007.3 hPa East 11.3 km/h 22.5 km/h 71% 0 mm 134 W/m2
14:04 3 °C -1.9 °C 1007.3 hPa ENE 11.3 km/h 19.3 km/h 70% 0 mm 148 W/m2
14:10 3.1 °C -1.7 °C 1007.3 hPa ENE 9.7 km/h 17.7 km/h 71% 0 mm 141 W/m2
14:16 3.1 °C -1.7 °C 1007 hPa NE 9.7 km/h 17.7 km/h 71% 0 mm 137 W/m2
14:22 2.9 °C -1.6 °C 1007.3 hPa NE 8 km/h 11.3 km/h 72% 0 mm 125 W/m2
14:28 2.8 °C -1.6 °C 1007 hPa ENE 9.7 km/h 16.1 km/h 73% 0 mm 137 W/m2
14:36 2.7 °C -1.4 °C 1007.3 hPa ESE 11.3 km/h 11.3 km/h 74% 0 mm 125 W/m2
14:42 2.7 °C -1.6 °C 1007.3 hPa NE 9.7 km/h 14.5 km/h 73% 0 mm 107 W/m2
14:48 2.7 °C -1.8 °C 1007.3 hPa NE 11.3 km/h 14.5 km/h 72% 0 mm 97 W/m2
14:54 2.7 °C -2 °C 1007.3 hPa SE 12.9 km/h 17.7 km/h 71% 0 mm 90 W/m2
15:00 2.7 °C -2.1 °C 1007.3 hPa ENE 14.5 km/h 14.5 km/h 71% 0 mm 84 W/m2
15:06 2.7 °C -2.2 °C 1007.7 hPa East 11.3 km/h 14.5 km/h 70% 0 mm 76 W/m2
15:12 2.7 °C -2.3 °C 1008 hPa ESE 11.3 km/h 16.1 km/h 70% 0 mm 65 W/m2
15:18 2.7 °C -2.3 °C 1007.7 hPa ESE 11.3 km/h 16.1 km/h 70% 0 mm 72 W/m2
15:24 2.7 °C -2.3 °C 1007.7 hPa NE 9.7 km/h 19.3 km/h 70% 0 mm 70 W/m2
15:30 2.7 °C -2.4 °C 1007.7 hPa ENE 9.7 km/h 12.9 km/h 69% 0 mm 63 W/m2
15:36 2.7 °C -2.4 °C 1007.7 hPa ESE 11.3 km/h 12.9 km/h 69% 0 mm 58 W/m2
15:42 2.7 °C -2.4 °C 1007.7 hPa ENE 9.7 km/h 17.7 km/h 69% 0 mm 58 W/m2
15:48 2.6 °C -2.5 °C 1007.3 hPa East 9.7 km/h 17.7 km/h 69% 0 mm 51 W/m2
15:54 2.6 °C -2.8 °C 1007.3 hPa ESE 9.7 km/h 20.9 km/h 68% 0 mm 47 W/m2
16:00 2.5 °C -2.6 °C 1007.3 hPa East 9.7 km/h 9.7 km/h 69% 0 mm 42 W/m2
16:06 2.4 °C -2.9 °C 1007.3 hPa SE 9.7 km/h 17.7 km/h 68% 0 mm 35 W/m2
16:12 2.4 °C -2.9 °C 1007.3 hPa East 9.7 km/h 11.3 km/h 68% 0 mm 30 W/m2
16:18 2.4 °C -2.7 °C 1007.7 hPa NE 9.7 km/h 16.1 km/h 69% 0 mm 26 W/m2
16:24 2.3 °C -2.8 °C 1007.7 hPa ENE 9.7 km/h 14.5 km/h 69% 0 mm 21 W/m2
16:30 2.3 °C -2.8 °C 1007.7 hPa ENE 9.7 km/h 9.7 km/h 69% 0 mm 16 W/m2
16:36 2.2 °C -2.9 °C 1008 hPa SE 8 km/h 14.5 km/h 69% 0 mm 12 W/m2
16:42 2.2 °C -2.9 °C 1008 hPa ESE 8 km/h 9.7 km/h 69% 0 mm 9 W/m2
16:48 2.1 °C -3 °C 1008 hPa ESE 8 km/h 12.9 km/h 69% 0 mm 7 W/m2
16:54 2.2 °C -3.1 °C 1008 hPa ESE 11.3 km/h 14.5 km/h 68% 0 mm 0 W/m2
17:00 2.1 °C -3 °C 1008 hPa ESE 9.7 km/h 9.7 km/h 69% 0 mm 0 W/m2
17:06 2.1 °C -3.1 °C 1007.7 hPa East 9.7 km/h 9.7 km/h 69% 0 mm 0 W/m2
17:12 2.1 °C -3.2 °C 1007.7 hPa ESE 9.7 km/h 11.3 km/h 68% 0 mm 0 W/m2
17:18 2.1 °C -3.1 °C 1007.3 hPa East 8 km/h 11.3 km/h 69% 0 mm 0 W/m2
17:24 1.9 °C -3.2 °C 1007.3 hPa ENE 6.4 km/h 11.3 km/h 69% 0 mm 0 W/m2
17:30 1.9 °C -3.2 °C 1007.3 hPa ENE 8 km/h 8 km/h 69% 0 mm 0 W/m2
17:36 1.9 °C -3.2 °C 1007.3 hPa ENE 6.4 km/h 12.9 km/h 69% 0 mm 0 W/m2
17:42 1.9 °C -3.2 °C 1007.7 hPa East 9.7 km/h 19.3 km/h 69% 0 mm 0 W/m2
17:48 1.8 °C -3.1 °C 1007.7 hPa ENE 9.7 km/h 19.3 km/h 70% 0 mm 0 W/m2
17:54 1.8 °C -3.1 °C 1008 hPa ENE 6.4 km/h 16.1 km/h 70% 0 mm 0 W/m2
18:00 1.9 °C -3 °C 1008 hPa SE 8 km/h 14.5 km/h 70% 0 mm 0 W/m2
18:06 1.8 °C -3.1 °C 1008 hPa NNE 8 km/h 14.5 km/h 70% 0 mm 0 W/m2
18:12 1.8 °C -3.1 °C 1008 hPa East 8 km/h 8 km/h 70% 0 mm 0 W/m2
18:18 1.8 °C -3.3 °C 1008 hPa East 8 km/h 12.9 km/h 69% 0 mm 0 W/m2
18:24 1.8 °C -3.3 °C 1008 hPa East 8 km/h 11.3 km/h 69% 0 mm 0 W/m2
18:30 1.8 °C -3.3 °C 1008.4 hPa ENE 6.4 km/h 6.4 km/h 69% 0 mm 0 W/m2
18:36 1.8 °C -3.1 °C 1008.4 hPa ENE 6.4 km/h 6.4 km/h 70% 0 mm 0 W/m2
18:44 1.8 °C -3.3 °C 1008.4 hPa SE 6.4 km/h 8 km/h 69% 0 mm 0 W/m2
18:50 1.8 °C -3.3 °C 1008 hPa SE 8 km/h 8 km/h 69% 0 mm 0 W/m2
18:56 1.8 °C -3.1 °C 1008.4 hPa NE 6.4 km/h 8 km/h 70% 0 mm 0 W/m2
19:02 1.7 °C -3.2 °C 1008 hPa ESE 6.4 km/h 8 km/h 70% 0 mm 0 W/m2
19:08 1.7 °C -3.4 °C 1008.4 hPa SE 8 km/h 16.1 km/h 69% 0 mm 0 W/m2
19:14 1.7 °C -3.4 °C 1008.4 hPa ENE 6.4 km/h 16.1 km/h 69% 0 mm 0 W/m2
19:20 1.7 °C -3.4 °C 1008.4 hPa East 8 km/h 14.5 km/h 69% 0 mm 0 W/m2
19:26 1.7 °C -3.2 °C 1008.4 hPa ESE 9.7 km/h 14.5 km/h 70% 0 mm 0 W/m2
19:32 1.7 °C -3.4 °C 1008 hPa SE 9.7 km/h 17.7 km/h 69% 0 mm 0 W/m2
19:38 1.7 °C -3.6 °C 1008 hPa SE 11.3 km/h 17.7 km/h 68% 0 mm 0 W/m2
19:44 1.7 °C -3.4 °C 1008 hPa SE 8 km/h 12.9 km/h 69% 0 mm 0 W/m2
19:50 1.6 °C -3.4 °C 1008 hPa ESE 4.8 km/h 6.4 km/h 69% 0 mm 0 W/m2
19:56 1.6 °C -3.3 °C 1008 hPa East 4.8 km/h 11.3 km/h 70% 0 mm 0 W/m2
20:02 1.6 °C -3.5 °C 1008 hPa ENE 8 km/h 11.3 km/h 69% 0 mm 0 W/m2
20:08 1.6 °C -3.5 °C 1008 hPa East 8 km/h 14.5 km/h 69% 0 mm 0 W/m2
20:14 1.5 °C -3.6 °C 1008 hPa East 6.4 km/h 12.9 km/h 69% 0 mm 0 W/m2
20:20 1.5 °C -3.6 °C 1008 hPa East 6.4 km/h 9.7 km/h 69% 0 mm 0 W/m2
20:26 1.4 °C -3.6 °C 1008 hPa East 8 km/h 30.6 km/h 69% 0 mm 0 W/m2
20:32 1.4 °C -3.6 °C 1008 hPa ENE 8 km/h 8 km/h 69% 0 mm 0 W/m2
20:38 1.4 °C -3.4 °C 1008 hPa NE 8 km/h 11.3 km/h 70% 0 mm 0 W/m2
20:44 1.4 °C -3.5 °C 1008 hPa East 9.7 km/h 16.1 km/h 70% 0 mm 0 W/m2
20:50 1.4 °C -3.5 °C 1008 hPa ENE 11.3 km/h 12.9 km/h 70% 0 mm 0 W/m2
20:56 1.3 °C -3.4 °C 1008 hPa East 9.7 km/h 12.9 km/h 71% 0 mm 0 W/m2
21:02 1.2 °C -3.2 °C 1008 hPa ENE 8 km/h 12.9 km/h 73% 0 mm 0 W/m2
21:08 1.1 °C -3 °C 1007.7 hPa East 8 km/h 20.9 km/h 74% 0 mm 0 W/m2
21:14 1 °C -2.9 °C 1007.7 hPa East 9.7 km/h 12.9 km/h 75% 0 mm 0 W/m2
21:20 0.9 °C -2.9 °C 1007.7 hPa ENE 9.7 km/h 14.5 km/h 76% 0 mm 0 W/m2
21:26 0.8 °C -2.7 °C 1007.7 hPa East 8 km/h 14.5 km/h 77% 0 mm 0 W/m2
21:32 0.7 °C -2.7 °C 1007.7 hPa ENE 4.8 km/h 6.4 km/h 78% 0 mm 0 W/m2
21:38 0.7 °C -2.7 °C 1007.7 hPa East 3.2 km/h 6.4 km/h 78% 0 mm 0 W/m2
21:44 0.6 °C -2.4 °C 1007.3 hPa ENE 6.4 km/h 9.7 km/h 80% 0 mm 0 W/m2
21:50 0.4 °C -2.6 °C 1007.3 hPa East 8 km/h 8 km/h 80% 0 mm 0 W/m2
21:56 0.4 °C -2.5 °C 1007.3 hPa ENE 8 km/h 14.5 km/h 81% 0 mm 0 W/m2
22:02 0.3 °C -2.4 °C 1007 hPa ENE 6.4 km/h 12.9 km/h 82% 0 mm 0 W/m2
22:08 0.2 °C -2.2 °C 1007 hPa ESE 6.4 km/h 12.9 km/h 84% 0 mm 0 W/m2
22:14 0.1 °C -2.2 °C 1007 hPa ENE 6.4 km/h 6.4 km/h 85% 0 mm 0 W/m2
22:20 0.1 °C -2 °C 1007 hPa NE 4.8 km/h 4.8 km/h 86% 0 mm 0 W/m2
22:26 0 °C -2.1 °C 1007 hPa North 4.8 km/h 8 km/h 86% 1.02 mm 0 W/m2
22:32 0 °C -1.9 °C 1007 hPa ENE 4.8 km/h 6.4 km/h 87% 1.02 mm 0 W/m2
22:38 0 °C -1.9 °C 1007 hPa ENE 6.4 km/h 6.4 km/h 87% 1.27 mm 0 W/m2
22:44 0 °C -1.9 °C 1007 hPa ENE 4.8 km/h 6.4 km/h 87% 1.27 mm 0 W/m2
22:50 0 °C -1.8 °C 1006.7 hPa ENE 4.8 km/h 8 km/h 88% 1.02 mm 0 W/m2
22:56 -0.1 °C -1.8 °C 1006.7 hPa NE 4.8 km/h 8 km/h 88% 0 mm 0 W/m2
23:02 -0.1 °C -1.8 °C 1006.7 hPa North 4.8 km/h 6.4 km/h 88% 0 mm 0 W/m2
23:08 -0.1 °C -1.8 °C 1006.3 hPa ENE 4.8 km/h 11.3 km/h 88% 0 mm 0 W/m2
23:14 -0.1 °C -1.8 °C 1006.3 hPa East 3.2 km/h 6.4 km/h 88% 0 mm 0 W/m2
23:20 -0.1 °C -1.8 °C 1006.3 hPa NE 1.6 km/h 1.6 km/h 88% 0 mm 0 W/m2
23:26 -0.1 °C -1.7 °C 1006.3 hPa ENE 1.6 km/h 4.8 km/h 89% 0 mm 0 W/m2
23:32 -0.1 °C -1.7 °C 1006 hPa North 3.2 km/h 3.2 km/h 89% 0 mm 0 W/m2
23:38 -0.1 °C -1.7 °C 1006 hPa NE 3.2 km/h 3.2 km/h 89% 0 mm 0 W/m2
23:44 -0.1 °C -1.7 °C 1006 hPa East 1.6 km/h 8 km/h 89% 0 mm 0 W/m2
23:50 -0.1 °C -1.7 °C 1006 hPa NNE 1.6 km/h 4.8 km/h 89% 0 mm 0 W/m2
23:56 -0.1 °C -1.7 °C 1005.6 hPa East 3.2 km/h 8 km/h 89% 0 mm 0 W/m2
Country Meadow, Clay, NY, USA
Compliments of Weather Underground - 2 mb